[[{"header":{"parameterUnit":"m.s-1","parameterCategory":1,"la1":30.2991,"la2":30.254,"lo1":-89.0895,"lo2":-89.0444,"dy":0.0017,"dx":0.0017,"nx":28,"ny":28,"refTime":"2025-11-18T03:00:00:Z","depth":0,"parameterNumber":2,"parameterNumberName":"U-component_of_WINDS"},"data":[0,0,0,0,0,0,0,0,0,0,0,0,0,0,0,0,0,0,0,0,0,0,0,0,0,0,0,0,0,0,0,0,0,0,0,0,0,0,0,0,0,0,0,0,0,0,0,0,0,0,0,0,0,0,0,0,0,0,0.5614,0.5613,0,0.5514,0.5513,0.5512,0.5433,0.5432,0.5432,0.5431,0.5323,0.5321,0.5318,0,0,0,0,0,0,0,0,0,0,0,0,0,0.5733,0.5731,0.5614,0.5613,0.5612,0.5515,0.5513,0.5512,0.5433,0.5432,0.5431,0.5431,0.5323,0.5321,0.5318,0,0,0,0,0,0,0,0,0,0,0,0,0,0.5662,0.573,0.5614,0.5561,0.5555,0.5515,0.5513,0.5511,0.5433,0.5432,0.5431,0.543,0.5324,0.5321,0.5318,0.5321,0,0,0.5308,0.5307,0,0,0,0,0,0,0,0,0.5666,0.5657,0.557,0.5565,0.5558,0.5485,0.5515,0.5447,0.5434,0.548,0.5431,0.543,0.5377,0.537,0.5353,0.5316,0.5311,0.5308,0.5306,0.5304,0.5303,0,0,0,0,0,0,0,0.5671,0.5661,0.5574,0.5569,0.5562,0.5541,0.5529,0.5502,0.5436,0.5475,0.547,0.5459,0.5374,0.5357,0.535,0.5309,0.5308,0.5305,0.5303,0.5302,0.527,0.5271,0,0,0,0,0,0,0.5685,0.5666,0.5578,0.5572,0.5611,0.5539,0.5527,0.551,0.5436,0.5424,0.546,0.5456,0.5363,0.5354,0.5346,0.5345,0.5304,0.5301,0.5299,0.5269,0.5271,0.5272,0,0,0,0,0,0,0.5688,0.5678,0.5582,0.5617,0.5603,0.5539,0.552,0.5508,0.5491,0.5425,0.5412,0.5455,0.5361,0.5351,0.5328,0.5341,0.53,0.5297,0.5268,0.527,0.5271,0.5344,0,0,0,0,0,0,0.5691,0.5679,0.5681,0.5618,0.5602,0.5567,0.5521,0.5507,0.5486,0.548,0.5416,0.5405,0.536,0.5334,0.5325,0.5335,0.5294,0.5266,0.5269,0.5271,0.534,0.5348,0.5355,0,0,0,0,0,0.5696,0.5703,0.5681,0.5671,0.5602,0.5568,0.5559,0.5509,0.5488,0.5488,0.5445,0.5407,0.5341,0.5332,0.5322,0.5331,0.5265,0.5268,0.527,0.5337,0.5347,0.5355,0,0,0,0,0,0,0.5766,0.5694,0.5668,0.5656,0.5619,0.5555,0.5554,0.552,0.5487,0.5481,0.5419,0.5405,0.539,0.5358,0.535,0.5331,0.5298,0.5299,0.5352,0.5361,0.5368,0.5376,0.5292,0,0,0,0,0,0.5781,0.5761,0.5698,0.5693,0.5676,0.5619,0.5602,0.5567,0.5525,0.5508,0.5464,0.5424,0.5394,0.5375,0.5344,0.5335,0.5321,0.5337,0.5344,0.535,0.5351,0.5346,0.5352,0.528,0.528,0.528,0,0,0.581,0.5768,0.5759,0.5706,0.5674,0.5653,0.5606,0.5585,0.557,0.5504,0.5482,0.5448,0.5399,0.5384,0.5375,0.5357,0.5368,0.5353,0.5359,0.5357,0.5349,0.5356,0.5362,0.5282,0.5281,0.5281,0,0,0.5852,0.5819,0.5812,0.5781,0.5733,0.5695,0.5694,0.5635,0.5611,0.5588,0.5539,0.5518,0.5468,0.5435,0.5412,0.5445,0.5409,0.5437,0.5474,0.5469,0.5475,0.548,0.5492,0.5497,0.5438,0.5438,0.5438,0,0.5894,0.5863,0.5812,0.5796,0.5774,0.5717,0.571,0.5681,0.5625,0.5611,0.5592,0.5529,0.5492,0.5469,0.5478,0.5461,0.5457,0.5443,0.5479,0.5483,0.5486,0.5498,0.5503,0.5442,0.5442,0.5441,0.5441,0,0.5917,0.5896,0.5896,0.5846,0.5825,0.5813,0.5759,0.5743,0.571,0.5674,0.5652,0.5605,0.5565,0.5556,0.5523,0.5529,0.552,0.5491,0.5457,0.5498,0.5508,0.5512,0.5447,0.5446,0.5445,0.5444,0,0,0.5999,0.5924,0.5924,0.5902,0.5846,0.5828,0.5814,0.5777,0.5765,0.5728,0.5714,0.5674,0.5648,0.5622,0.5584,0.558,0.561,0.5551,0.5549,0.5564,0.5616,0.5639,0.5644,0.5586,0.5587,0.5587,0.562,0,0.6033,0.6006,0.5961,0.5948,0.5929,0.5876,0.5863,0.5827,0.5793,0.5771,0.5732,0.5706,0.5672,0.5656,0.565,0.5608,0.562,0.5605,0.5572,0.5571,0.5586,0.5649,0.5672,0.5706,0.5623,0.5624,0.5624,0,0.6068,0.6038,0.6025,0.5973,0.5963,0.5953,0.5916,0.5895,0.5853,0.5829,0.5802,0.5762,0.5743,0.5713,0.5686,0.5677,0.566,0.5638,0.5638,0.5633,0.5601,0.5646,0.5715,0.5721,0.563,0.5629,0.5629,0,0.6131,0.6087,0.6073,0.6055,0.5994,0.5988,0.5962,0.5919,0.59,0.5868,0.5855,0.5819,0.58,0.5773,0.5724,0.5707,0.5703,0.5668,0.5682,0.5683,0.5683,0.5684,0.5751,0.5673,0.5673,0.5672,0.5672,0,0.6173,0.6167,0.6101,0.6093,0.6084,0.6032,0.6025,0.5993,0.5956,0.594,0.5891,0.5877,0.5814,0.5792,0.5753,0.5738,0.5729,0.5708,0.5698,0.5713,0.5715,0.5701,0.5697,0.5674,0.5673,0.5673,0.5673,0,0.6241,0.6197,0.6179,0.6123,0.6109,0.6106,0.6057,0.6047,0.6012,0.5992,0.5984,0.5928,0.59,0.5849,0.5805,0.578,0.5772,0.5754,0.5787,0.5781,0.5798,0.5797,0.5858,0.5864,0.5782,0.5783,0.5784,0,0.6271,0.6266,0.6211,0.6198,0.6175,0.6154,0.6136,0.6085,0.6067,0.6021,0.6016,0.5985,0.5957,0.5915,0.5868,0.5835,0.5817,0.5841,0.5811,0.5827,0.5818,0.5819,0.5818,0.5847,0.5848,0.5849,0.585,0,0.6329,0.6309,0.6285,0.6255,0.6235,0.6208,0.6178,0.617,0.6111,0.6094,0.6067,0.6046,0.6003,0.5973,0.5934,0.5905,0.5868,0.586,0.5861,0.5876,0.5896,0.5886,0.5806,0.5858,0.5858,0.5857,0.5856,0.5856,0.6379,0.6373,0.6334,0.631,0.6283,0.6257,0.6246,0.621,0.6187,0.6151,0.6121,0.6096,0.6056,0.6,0.5974,0.5952,0.5935,0.5937,0.5937,0.5939,0.5945,0.59,0.5945,0.5944,0.5944,0.5944,0.5944,0,0.6435,0.6409,0.6388,0.6349,0.6331,0.6301,0.6267,0.6252,0.6232,0.6198,0.6174,0.6143,0.6113,0.6067,0.6034,0.6026,0.6008,0.6019,0.6019,0.6013,0.5962,0.5965,0.6034,0.6034,0.6034,0.6034,0.6034,0.6034,0.6462,0.645,0.6426,0.64,0.6373,0.635,0.6334,0.6309,0.6283,0.6251,0.6228,0.6199,0.616,0.6124,0.6096,0.6083,0.6073,0.609,0.6071,0.6025,0.6016,0.6008,0.601,0.6088,0.6088,0.6124,0.6124,0.6125]},{"header":{"parameterUnit":"m.s-1","parameterCategory":1,"la1":30.2991,"la2":30.254,"lo1":-89.0895,"lo2":-89.0444,"dy":0.0017,"dx":0.0017,"nx":28,"ny":28,"refTime":"2025-11-18T03:00:00:Z","depth":0,"parameterNumber":3,"parameterNumberName":"V-component_of_WINDS"},"data":[0,0,0,0,0,0,0,0,0,0,0,0,0,0,0,0,0,0,0,0,0,0,0,0,0,0,0,0,0,0,0,0,0,0,0,0,0,0,0,0,0,0,0,0,0,0,0,0,0,0,0,0,0,0,0,0,0,0,1.1371,1.1369,0,1.1174,1.1172,1.117,1.1078,1.1078,1.1078,1.1079,1.0884,1.0878,1.0873,0,0,0,0,0,0,0,0,0,0,0,0,0,1.1674,1.1669,1.1371,1.1368,1.1366,1.1174,1.1172,1.1169,1.1078,1.1078,1.1078,1.1079,1.0885,1.0879,1.0873,0,0,0,0,0,0,0,0,0,0,0,0,0,1.1517,1.1668,1.1371,1.1297,1.1289,1.1175,1.1172,1.1168,1.1078,1.1078,1.1079,1.1079,1.0887,1.088,1.0872,1.0819,0,0,1.0847,1.0844,0,0,0,0,0,0,0,0,1.1526,1.1506,1.1311,1.1302,1.1292,1.1151,1.1207,1.1051,1.1078,1.1158,1.1079,1.1079,1.0973,1.0958,1.0921,1.081,1.0801,1.0847,1.0842,1.0839,1.0836,0,0,0,0,0,0,0,1.1537,1.1514,1.1293,1.1308,1.1297,1.1276,1.1254,1.1177,1.1067,1.1151,1.1144,1.1122,1.0968,1.0929,1.0915,1.0798,1.0847,1.084,1.0835,1.0832,1.0635,1.0635,0,0,0,0,0,0,1.1559,1.1523,1.1299,1.1287,1.1412,1.1271,1.1246,1.1196,1.1068,1.1048,1.1122,1.1118,1.0942,1.0925,1.0908,1.0837,1.0839,1.0831,1.0827,1.0636,1.0635,1.0635,0,0,0,0,0,0,1.1566,1.154,1.1307,1.1403,1.1372,1.1265,1.121,1.1192,1.1152,1.1045,1.1026,1.1101,1.0942,1.0919,1.0841,1.0829,1.0828,1.082,1.0636,1.0636,1.0635,1.0696,0,0,0,0,0,0,1.1575,1.1543,1.152,1.1403,1.1367,1.1242,1.1209,1.1188,1.1138,1.1132,1.1021,1.1003,1.094,1.0854,1.0834,1.0818,1.0814,1.0637,1.0636,1.0635,1.0695,1.0698,1.07,0,0,0,0,0,1.1586,1.1546,1.1519,1.1493,1.1336,1.1241,1.1221,1.1147,1.1138,1.1115,1.1046,1.1006,1.0835,1.0847,1.0823,1.0805,1.0637,1.0636,1.0635,1.0693,1.0697,1.07,0,0,0,0,0,0,1.1665,1.1529,1.1498,1.1419,1.1342,1.1226,1.1194,1.1154,1.108,1.1077,1.0991,1.0967,1.0897,1.0844,1.0859,1.0748,1.0732,1.0727,1.0785,1.0787,1.079,1.0804,1.0807,0,0,0,0,0,1.1674,1.1606,1.1492,1.1433,1.1396,1.1302,1.1258,1.1208,1.1126,1.1094,1.1019,1.0943,1.0872,1.0827,1.0756,1.0687,1.0662,1.0664,1.0667,1.0669,1.0665,1.0626,1.0625,1.0631,1.0631,1.0631,0,0,1.169,1.1607,1.157,1.1447,1.1381,1.1315,1.1275,1.1207,1.1158,1.1084,1.1005,1.0948,1.0858,1.0785,1.0749,1.0738,1.0658,1.0668,1.0671,1.0665,1.0625,1.0624,1.0624,1.0631,1.0631,1.0631,0,0,1.1685,1.1616,1.1559,1.1494,1.1396,1.1334,1.1321,1.1211,1.1169,1.1088,1.1032,1.0974,1.0853,1.0791,1.0743,1.0718,1.0679,1.0697,1.0711,1.0674,1.0673,1.0673,1.0663,1.0661,1.0694,1.0694,1.0694,0,1.1718,1.1614,1.1536,1.147,1.1418,1.1347,1.129,1.1232,1.1117,1.1083,1.1073,1.092,1.0854,1.0765,1.0759,1.0723,1.0707,1.0709,1.068,1.0678,1.0676,1.0666,1.0663,1.0697,1.0696,1.0696,1.0696,0,1.166,1.1589,1.1556,1.1443,1.1388,1.1327,1.1241,1.1195,1.1151,1.1092,1.1011,1.093,1.0841,1.0817,1.0774,1.0723,1.0719,1.0696,1.0678,1.0679,1.0669,1.0665,1.0701,1.07,1.0699,1.0698,0,0,1.1698,1.1543,1.1532,1.1481,1.1368,1.1312,1.125,1.1161,1.1123,1.1047,1.0993,1.0893,1.087,1.0817,1.0767,1.0734,1.0719,1.0714,1.0711,1.0718,1.0659,1.0677,1.0673,1.0693,1.0692,1.0692,1.0666,0,1.1677,1.1558,1.1487,1.1399,1.1333,1.1266,1.1211,1.1138,1.1081,1.1019,1.0957,1.0887,1.0862,1.083,1.0795,1.0728,1.0706,1.073,1.0644,1.0642,1.0667,1.0668,1.0686,1.0665,1.0662,1.0661,1.066,0,1.1636,1.1559,1.1464,1.1358,1.1328,1.128,1.1193,1.1134,1.105,1.1012,1.0953,1.0902,1.0836,1.0825,1.0734,1.0751,1.0712,1.0675,1.0673,1.0661,1.065,1.0656,1.0657,1.0654,1.0653,1.0654,1.0654,0,1.1673,1.1546,1.1472,1.143,1.1306,1.1274,1.1221,1.1137,1.1088,1.1014,1.0982,1.0902,1.0858,1.0799,1.0729,1.0728,1.0645,1.0628,1.0612,1.0614,1.0596,1.0598,1.0591,1.0573,1.0574,1.0574,1.0574,0,1.1657,1.1601,1.1487,1.1442,1.1378,1.1298,1.1238,1.118,1.1106,1.105,1.0989,1.0938,1.0849,1.0789,1.0734,1.0667,1.0648,1.0616,1.0602,1.0621,1.0625,1.0593,1.0593,1.0573,1.0573,1.0573,1.0573,0,1.1687,1.1608,1.1523,1.1412,1.1383,1.1341,1.1247,1.1202,1.1142,1.1072,1.1052,1.0959,1.0884,1.0809,1.0709,1.0673,1.0607,1.0589,1.0635,1.0626,1.0614,1.0616,1.0586,1.0578,1.0567,1.0568,1.0568,0,1.1681,1.1636,1.152,1.1477,1.1425,1.1357,1.1306,1.1227,1.1178,1.108,1.1047,1.0967,1.0899,1.0784,1.0709,1.0633,1.0612,1.0606,1.06,1.062,1.0611,1.0614,1.0609,1.0609,1.0609,1.061,1.061,0,1.1678,1.1642,1.1571,1.1486,1.1428,1.1358,1.1287,1.1256,1.1163,1.1112,1.1033,1.098,1.0878,1.08,1.0715,1.0663,1.0622,1.0613,1.0605,1.0623,1.0651,1.0635,1.0641,1.0613,1.0613,1.0613,1.0613,1.0613,1.1689,1.1646,1.1558,1.1481,1.1419,1.1354,1.1306,1.124,1.1173,1.1081,1.1039,1.0961,1.088,1.0762,1.0711,1.065,1.0639,1.0628,1.0625,1.0623,1.0627,1.0662,1.0635,1.0635,1.0635,1.0634,1.0634,0,1.1683,1.1623,1.1554,1.1454,1.1395,1.1359,1.1279,1.1232,1.1163,1.109,1.1024,1.0935,1.086,1.078,1.0701,1.0668,1.0647,1.065,1.0651,1.064,1.0642,1.0656,1.0668,1.0668,1.0668,1.0668,1.0668,1.0668,1.1673,1.1598,1.1552,1.1447,1.1388,1.1309,1.1266,1.1206,1.1148,1.105,1.0986,1.0934,1.0859,1.0774,1.0704,1.0683,1.0657,1.0665,1.0639,1.0642,1.0639,1.0637,1.065,1.066,1.066,1.0641,1.0641,1.0641]}]]